Other Public Products
Issued by NWS Grand Forks, ND

Home | Current Version | Previous Version | Text Only | Print | Product List | Glossary Off
Versions: 1 2 3 4 5 6 7 8 9 10 11 12 13 14 15 16 17 18 19 20 21 22 23 24 25 26 27 28 29 30 31 32 33 34 35 36 37 38 39 40 41 42 43 44 45 46 47 48 49 50

000
FPUS83 KFGF 230231
OPUFGF
PRAIRIE TO PINES WEATHER ROUNDUP
NATIONAL WEATHER SERVICE EASTERN NORTH DAKOTA/GRAND FORKS ND
900 PM CDT FRI JUL 22 2016

 **SATELLITE DATA USED TO AUGMENT SKY COVER AT AUTOMATED STATIONS**
 *****  WEATHER ACROSS EASTERN NORTH DAKOTA  *****

CITY           SKY/WX    TMP DP  RH WIND       PRES   REMARKS
GRAND FORKS    PTCLDY    79  66  64 NE6       29.98R
GRAND FORKS AF CLOUDY    77  65  67 E3        29.99R
GRAND CITY NWS   N/A     75 N/A N/A E3          N/A
BUXTON           N/A     76  73  92 NE3         N/A
DEVILS LAKE    CLOUDY    77  67  71 E10       30.01R
FARGO          CLOUDY    79  69  71 N7        29.95R
WAHPETON ARPT  CLOUDY    77  66  69 SE3       29.95S
$$

 *****  WEATHER ACROSS CENTRAL AND WESTERN NORTH DAKOTA  *****

CITY           SKY/WX    TMP DP  RH WIND       PRES   REMARKS
JAMESTOWN      CLOUDY    75  71  87 E6        29.98R
BISMARCK       LGT RAIN  71  68  90 S17       30.04R
MINOT          CLOUDY    78  64  61 E12       29.93F
MINOT AFB      CLOUDY    76  63  63 E16       29.92F
GARRISON         N/A     76  67  73 S14G21    29.94S
WILLISTON      CLOUDY    83  60  45 E20G26    29.87R
DICKINSON      LGT RAIN  67  65  93 E14G21    29.99R
HETTINGER      CLOUDY    72  65  78 E20G25    29.94R
$$

 *****  OTHER OBSERVATIONS NORTHEAST NORTH DAKOTA  *****

CITY           SKY/WX    TMP DP  RH WIND       PRES   REMARKS
WALHALLA       FAIR      73  68  83 S3        30.00R
LANGDON        FAIR      70  68  94 SE7       30.02S
CAVALIER       FAIR      73  68  83 S3        29.99R
GRAFTON        FAIR      73  70  88 CALM      30.01R
CANDO          FAIR      70  66  88 E7        30.02S
FORT TOTTEN      N/A     76  66  71 SE5       29.95S
ROLLA          FAIR      70  64  83 SE8       30.02S
RUGBY          NOT AVBL
 ***** THE ABOVE OBSERVATIONS ARE NON NWS ARE NOT QUALITY
        CONTROLLED AND MAY MIS-REPORT RAIN FOR SNOW...
$$

 *****  OTHER OBSERVATIONS SOUTHEAST NORTH DAKOTA *****

CITY           SKY/WX    TMP DP  RH WIND       PRES   REMARKS
COOPERSTOWN    NOT AVBL
VALLEY CITY      N/A     75  72  88 NE5       30.02R
OAKES            N/A    N/A N/A N/A MISG        N/A
GWINNER        FAIR      77  72  83 S3        29.99R
BUFFALO          N/A     74  65  75 NE6         N/A
WYNDMERE         N/A     75  72  88 SE1         N/A
 ***** THE ABOVE OBSERVATIONS ARE NON NWS ARE NOT QUALITY
       CONTROLLED AND MAY MIS-REPORT RAIN FOR SNOW...
$$

  *****  WEATHER ACROSS NORTHERN MINNESOTA  *****

CITY           SKY/WX    TMP DP  RH WIND       PRES   REMARKS
FLAG ISLAND    CLEAR     77  61  57 W5        29.96R
WARROAD        CLEAR     73  63  68 W5        29.99R
ROSEAU         CLEAR     73  64  73 NW3       29.99R
HALLOCK        CLEAR     75  70  83 CALM      29.99R
THF RVR FALLS  CLEAR     77  66  68 N3        30.01R
HALSTAD        NOT AVBL
FOSSTON        CLOUDY    70  63  78 CALM      30.02R
BAUDETTE       CLEAR     74  61  63 W5        29.97R
WASKISH        CLEAR     72  63  73 NW3       29.98R
CROOKSTON      PTCLDY    75  64  69 CALM      29.99R
$$
  *****  WEATHER ACROSS CENTRAL AND WEST MINNESOTA  *****

CITY           SKY/WX    TMP DP  RH WIND       PRES   REMARKS
BEMIDJI        CLEAR     73  64  73 CALM      30.00R
PARK RAPIDS    CLEAR     80  66  62 E5        29.98S
WADENA         CLEAR     73  68  83 CALM      29.99S
DETROIT LAKES  CLOUDY    79  68  69 CALM      30.00R
MOORHEAD       CLOUDY    75  70  83 N7        29.97R
FERGUS FALLS   CLOUDY    81  70  69 SE3       29.97R
ELBOW LAKE     FAIR      80  71  75 SE5       29.97F
MORRIS MN      CLOUDY    79  70  73 E7        29.94F
STAPLES        CLOUDY    73  68  83 S3        29.98S
WHEATON        PTCLDY    75  73  94 CALM      29.98R
$$
  *****  WEATHER ELSEWHERE ACROSS MINNESOTA  *****

CITY           SKY/WX    TMP DP  RH WIND       PRES   REMARKS
DULUTH         CLEAR     76  59  55 NW6       29.97F
INTRNTL FALLS  CLEAR     67  62  84 CALM      29.96S
ELY            CLEAR     72  55  56 W3        29.98R
CLOQUET        CLEAR     73  63  68 CALM      29.98R
BRAINERD       CLOUDY    81  72  74 N6        29.98R
HIBBING        CLEAR     69  62  78 CALM      29.97S
ALEXANDRIA     CLOUDY    78  68  71 E3        30.00R
SAINT CLOUD    CLOUDY    77  72  84 NE3       29.97R
MINNEAPOLIS    MOCLDY    88  61  40 SE7       29.96R
$$

  *****  WEATHER ACROSS SOUTH DAKOTA  *****

CITY           SKY/WX    TMP DP  RH WIND       PRES   REMARKS
SIOUX FALLS    MOCLDY    86  77  74 E12       29.92F HX  97
BROOKINGS      PTCLDY    81  75  82 SE10      29.94S
WATERTOWN      CLOUDY    82  68  62 SE7       29.97R
HURON          CLOUDY    86  75  69 SE9       29.87F HX  95
SISSETON         N/A     76  71  85 SE3       29.94S
ABERDEEN       CLOUDY    80  71  74 N5        29.97R
MITCHELL       CLOUDY    86  77  74 E10       29.89R HX  97
PIERRE         MOCLDY    85  71  63 SE12      29.89R HX  90
MOBRIDGE       TSTM      71  65  81 W10G32    30.07R
RAPID CITY     CLEAR     82  57  42 S17G25    29.92S
$$

  *****  SOME WEATHER IN NEARBY STATES *****

CITY           SKY/WX    TMP DP  RH WIND       PRES   REMARKS
GLASGOW MT     CLOUDY    82  59  45 E8        29.75R
GREAT FALLS MT SUNNY     82  34  17 W24G33    29.91R
CHEYENNE WY    CLOUDY    82  46  28 SW10      30.14F
SCOTTSBLUFF NE CLOUDY    76  60  57 E16       30.01S
OMAHA NE       MOCLDY    89  81  77 E12       29.89S HX 108
DES MOINES IA  PTCLDY    87  78  74 SE8       29.93F HX 100
DAVENPORT IA   PTCLDY    78  76  93 CALM      29.99S
CHICAGO IL     PTCLDY    86  75  69 NW6       29.97R HX  95
EAU CLAIRE WI  CLEAR     80  71  74 CALM      29.96F
LA CROSSE WI   CLEAR     86  76  71 CALM      29.94F HX  96
$$

  *****  SOME NATIONAL WEATHER *****

CITY           SKY/WX    TMP DP  RH WIND       PRES   REMARKS
LA GUARDIA NY  PTCLDY    89  71  55 SW13G21   29.80R HX  95
RALEIGH NC     PTCLDY    78  69  73 S5        30.01S
ATLANTA GA     PTCLDY    83  73  72 S7        30.04S
NEW ORLEANS LA MOCLDY    84  77  79 SE5       29.99S HX  94
OKLAHOMA CITY  PTCLDY    84  67  56 S7        29.97R
ALBUQUERQUE NM PTCLDY    95  38  13 SW12      30.11S HX  90
SALT LAKE CITY PTCLDY    96  32  10 N12       29.99F HX  90
LOS ANGELES CA MOSUNNY   78  60  53 W10       29.82S
BOISE ID       SUNNY     88  32  13 NW13      30.03F
SEATTLE WA     PTSUNNY   66  58  75 W7        30.27S
$$

*** WEATHER ACROSS MANITOBA...SASKATCHEWAN AND ONTARIO ***
                ***ONTARIO***

CITY           SKY/WX    TMP DP  RH WIND       PRES   REMARKS
GERALDTON      TSTM      70  59  68 N16       29.90R
THUNDER BAY    PTCLDY    73  63  68 W2        29.88S
SIOUX LOOKOUT  PTCLDY    72  57  60 NW6       29.93S
TORONTO        PTCLDY    82  57  42 W13       29.87R
BIG TROUT LK   CLEAR     63  55  77 N8        29.91R
PICKLE LAKE    PTCLDY    64  61  88 W2        29.92F
DRYDEN         CLEAR     73  57  56 W6        29.95S
KENORA         PTCLDY    75  57  53 NW5       29.97F
$$
                *** MANITOBA***

CITY           SKY/WX    TMP DP  RH WIND       PRES   REMARKS
BRANDON        PTCLDY    75  63  64 E6        29.96S
DAUPHIN        CLEAR     72  64  78 E3        29.92F
ISLAND LAKE    PTCLDY    66  55  68 N6        29.94R
PILOT MOUND      N/A     72  66  83 S7          N/A
THE PAS        PTCLDY    72  54  53 W3        29.91F
THOMPSON       PTCLDY    63  45  51 NW5       29.93S
WINNIPEG       PTCLDY    75  63  64 N2        29.95S
LYNN LAKE      CLEAR     64  43  45 MISG      29.87F
CHURCHILL      PTCLDY    55  41  58 E3        29.90
GILLAM         PTCLDY    61  43  51 N2        29.92S
$$
                ***SASKATCHEWAN***

CITY           SKY/WX    TMP DP  RH WIND       PRES   REMARKS
ESTEVAN        PTCLDY    72  64  78 E12       29.90S
KINDERSLEY     TSTM      63  59  88 E28G39    29.80F
LLOYDMINSTER   PTSUNNY   73  59  60 SE12G18   29.83F
PRINCE ALBERT  MOCLDY    70  61  73 SE5       29.88F
REGINA         MOCLDY    75  61  60 E16G23    29.85F
YORKTON        CLEAR     70  63  78 E6        29.93F
N. BATTLEFORD  CLOUDY    70  59  68 E13       29.85F   C1F1C2F2C3F3C4F4C5F5C6F6C7F7C8F8C9F9CaFaCbFbCcFcCdFdCe!



USA.gov is the U.S. government's official web portal to all federal, state and local government web resources and services.